Regional Weather Roundup
Issued by NWS Sterling, VA

Home | Current Version | Previous Version | Text Only | Print | Product List | Glossary On
Versions: 1 2 3 4 5 6 7 8 9 10 11 12 13 14 15 16 17 18 19 20 21 22 23 24 25 26 27 28 29 30 31 32 33 34 35 36 37 38 39 40 41 42 43 44 45 46 47 48 49 50
000
ASUS41 KLWX 231510
RWRLWX

REGIONAL WEATHER ROUNDUP
NATIONAL WEATHER SERVICE BALTIMORE MD/WASHINGTON DC
1100 AM EDT TUE SEP 23 2014

Note: "FAIR" indicates few or no clouds below 12,000 feet
with no significant weather and/or obstructions to visibility.
 TC=TEMPERATURE CELSIUS

 * =Non NWS site. Station does not report precipitation (e.g. rain,
    snow, etc.), thunder, or fog.

DCZ001-MDZ009-015-VAZ040>042-051-053>054-231600-
WASHINGTON METRO

CITY           SKY/WX    TMP DP  RH WIND       PRES   REMARKS
WASHINGTON NAT PTSUNNY   64  41  42 NE5       30.37R
DULLES         MOSUNNY   60  43  53 NE6       30.37S
ANDREWS AFB    SUNNY     61  43  50 E5        30.36R
QUANTICO       MOSUNNY   62  45  53 NE7       30.38R
COLLEGE PARK*  SUNNY     63  43  48 E3        30.36R
LEESBURG*      SUNNY     61  46  59 NE7       30.38S
MANASSAS*      SUNNY     61  45  55 N3        30.37
GAITHERSBURG*  SUNNY     61  45  55 N5        30.39F

$$

MDZ006>007-011-014-231600-
BALTIMORE METRO

CITY           SKY/WX    TMP DP  RH WIND       PRES   REMARKS
BWI AIRPORT    MOSUNNY   62  41  46 NE5       30.36R
MD SCIENCE CTR   N/A     62  42  47 MISG      30.36R
MARTIN STATE   MOSUNNY   63  46  55 NE8       30.37S
ANNAPOLIS      SUNNY     61  44  53 NE5       30.36R
FORT MEADE*    SUNNY     61  41  48 E5        30.38S

$$

MDZ012-015-019>023-231600-
MARYLAND EASTERN SHORE

CITY           SKY/WX    TMP DP  RH WIND       PRES   REMARKS
OCEAN CITY     PTSUNNY   64  46  52 N12       30.33R
SALISBURY      PTSUNNY   64  45  49 NE8       30.34R
BAY BRIDGE AP*   N/A     61  43  51 N3        30.36R
CAMBRIDGE*     MOSUNNY   61  43  51 N7        30.34R
EASTON*        PTSUNNY   63  46  55 NE7       30.38R

$$

MDZ017>025-231600-
SOUTHERN MARYLAND

CITY           SKY/WX    TMP DP  RH WIND       PRES   REMARKS
PATUXENT RIVER PTSUNNY   62  40  44 E8        30.35R
ST INIGOES     PTSUNNY   62  40  44 VRB6      30.35R
LEONARDTOWN*   PTSUNNY   61  41  48 N6        30.37R

$$

MDZ003>005-231600-
NORTH CENTRAL MARYLAND

CITY           SKY/WX    TMP DP  RH WIND       PRES   REMARKS
FREDERICK*     SUNNY     64  46  52 CALM      30.40R
HAGERSTOWN APT SUNNY     58  42  55 CALM      30.37S
WESTMINSTER*   SUNNY     59  43  55 E3        30.36R

$$

MDZ501>502-231600-
WESTERN MARYLAND

CITY           SKY/WX    TMP DP  RH WIND       PRES   REMARKS
OAKLAND*       SUNNY     54  32  43 E8        30.36S
CUMBERLAND*    SUNNY     63  43  48 CALM      30.42S

$$

VAZ025>031-231600-
SHENANDOAH VALLEY

CITY           SKY/WX    TMP DP  RH WIND       PRES   REMARKS
WINCHESTER*    SUNNY     61  41  48 SW5       30.39R
STAUNTON*      SUNNY     57  42  56 CALM      30.40S

$$

WVZ021-048>050-054>055-231600-
EASTERN WEST VIRGINIA PANHANDLE

CITY           SKY/WX    TMP DP  RH WIND       PRES   REMARKS
MARTINSBURG    SUNNY     61  40  45 E5        30.39R
PETERSBURG*    SUNNY     58  40  52 CALM      30.41R

$$

VAZ036>039-050-231600-
CENTRAL FOOTHILLS

CITY           SKY/WX    TMP DP  RH WIND       PRES   REMARKS
CHARLOTTESVILL MOSUNNY   60  42  51 VRB5      30.38R
ORANGE*        MOSUNNY   61  41  48 N5        30.39R

$$

VAZ055>057-231600-
NORTH AND CENTRAL PIEDMONT

CITY           SKY/WX    TMP DP  RH WIND       PRES   REMARKS
FREDERICKSBRG* MOSUNNY   62  46  54 N7        30.36S
STAFFORD*      MOSUNNY   62  44  51 NE7       30.41S

$$

NCZ024-NYZ072-PAZ021-071-VAZ022-071-231600-
OTHER REGIONAL OBSERVATIONS

CITY           SKY/WX    TMP DP  RH WIND       PRES   REMARKS
NEW YORK CITY  SUNNY     60  41  49 VRB5      30.36R
PHILADELPHIA   MOSUNNY   62  42  47 E9        30.34S
PITTSBURGH     MOSUNNY   56  43  61 CALM      30.38R
ROANOKE        PTSUNNY   56  46  69 CALM      30.38F
RICHMOND       CLOUDY    63  45  51 N9        30.36R
RALEIGH        CLOUDY    59  47  64 NE9       30.33R

$$

ANZ530>537-231600-
MARINE OBSERVATIONS

STATION/POSITION TIME  TEMP    WIND        PRES
                       AIR SEA DIR/SP/G
                 (UTC) (F)     (DEG/KT/KT) (MB)
THOMAS PT LIGHT  1500   59 71   10/  8/ 10 1028.9R
BALT KEY BRIDGE  1500   60      40/  8/ 13 1027.8R
COVE POINT       1500   58      40/ 10/ 15 1027.6F
LEWISETTA        1500   60 70   50/  6/  8 1027.5R
SOLOMONS ISLAND  1500      74                N/A
PINEY POINT      1500           70/  7/ 11   N/A

$$



USA.gov is the U.S. government's official web portal to all federal, state and local government web resources and services.